Regional Weather Roundup
Issued by NWS Goodland, KS

Home | Current Version | Previous Version | Text Only | Print | Product List | Glossary On
Versions: 1 2 3 4 5 6 7 8 9 10 11 12 13 14 15 16 17 18 19 20 21 22 23 24 25 26 27 28 29 30 31 32 33 34 35 36 37 38 39 40 41 42 43 44 45 46 47 48 49 50
000
ASUS43 KGLD 310608
RWRGLD

GOODLAND FORECAST AREA HOURLY WEATHER ROUNDUP
NATIONAL WEATHER SERVICE GOODLAND KS
1200 AM MDT SAT JUL 31 2021

...OFFICIAL OBSERVATIONS...

CITY           SKY/WX    TMP DP  RH WIND       PRES   REMARKS
GOODLAND KS    CLEAR     76  57  51 S14       30.07F
HILL CITY KS   PTCLDY    80  65  59 SW5       30.01S
IMPERIAL NEB   MOCLDY    74  62  66 N6        30.07R
MCCOOK NEB     MOCLDY    77  62  59 CALM      30.02R
AKRON CO       PTCLDY    72  62  71 N13       30.18S
BURLINGTON CO  PTCLDY    72  55  55 S10       30.12F
LIMON CO       MOCLDY    71  55  56 NW16G24   30.25R
$$

...UNOFFICIAL OBSERVATIONS...

CITY           SKY/WX    TMP DP  RH WIND       PRES   REMARKS
COLBY KS       CLEAR     78  59  51 S9        30.07S
NORTON KS      FAIR      79  61  53 S7        30.04S
SHARON SPRINGS   N/A     75  56  52 S9          N/A
YUMA CO        FAIR      73  48  40 NW6       30.13R
$$



USA.gov is the U.S. government's official web portal to all federal, state and local government web resources and services.